Location: *
(33.8649°S, 62.1526°E)
Time: 08:50:01
(UTC+00:00)

Cosmos 44 Rocket - Pass Details

Date: 08 December 2021
Orbit: 648 x 741 km, 65.1° (Epoch: 23 January)

Event Time Altitude Azimuth Distance (km) Brightness Sun altitude
Rises 16:55:52 0° 324° (NW) 2,956 6.4 -20.7°
Reaches altitude 10° 16:58:10 10° 320° (NW) 2,052 5.6 -21.0°
Maximum altitude 17:02:45 59° 240° (WSW) 761 3.7 -21.7°
Drops below altitude 10° 17:07:26 10° 160° (SSE) 2,094 6.1 -22.3°
Sets 17:09:49 0° 155° (SSE) 3,023 7.0 -22.6°
